Weather History for Milford, UT

Change the Weather History Date:

Thursday, November 21, 2013

  Actual Average Record
Temperature  
Mean Temperature 34 °F -  
Max Temperature 40 °F 47 °F 66 °F (2006)
Min Temperature 28 °F 21 °F 15 °F (2005)
Degree Days  
Heating Degree Days 31    
Moisture  
Dew Point 30 °F    
Average Humidity 91    
Maximum Humidity 96    
Minimum Humidity 80    
Precipitation  
Precipitation 0.24 in - - ()
Sea Level Pressure  
Sea Level Pressure 30.03 in    
Wind  
Wind Speed 13 mph (North)    
Max Wind Speed 25 mph    
Max Gust Speed 33 mph    
Visibility 4 miles    
Events Rain , Snow    
Averages and records for this station are not official NWS values.
T = Trace of Precipitation, MM = Missing Value Source: NWS Daily Summary

Daily Weather History Graph

Daily Weather History Graph

Search for Another Location

Airport:

Trip Planner

Search our weather history database for the weather conditions in past years. The results will help you decide how hot, cold, wet, or windy it might be!

Date:

Astronomy

Nov. 21, 2013 Rise Set
Actual Time 7:20 AM MST 5:15 PM MST
Civil Twilight 6:51 AM MST 5:43 PM MST
Nautical Twilight 6:19 AM MST 6:16 PM MST
Astronomical Twilight 5:47 AM MST 6:47 PM MST
Moon 8:55 PM MST (11/21) 10:29 AM MST (11/21)
Length of Visible Light 10h 52m
Length of Day
9h 54m
Waning Gibbous, 85% of the Moon is Illuminated
Nov 21
Waning Gibbous
Nov 25
Last Quarter
Dec 2
New
Dec 9
First Quarter
Dec 17
Full

Hourly Weather History & Observations

Time (MST) Temp. Windchill Dew Point Humidity Pressure Visibility Wind Dir Wind Speed Gust Speed Precip Events Conditions
12:52 AM 39.9 °F 35.8 °F 35.1 °F 83% 29.82 in 10.0 mi SW 5.8 mph - N/A   Overcast
1:52 AM 39.9 °F 34.5 °F 36.0 °F 86% 29.81 in 10.0 mi SSW 8.1 mph - N/A   Overcast
2:52 AM 39.9 °F - 36.0 °F 86% 29.82 in 10.0 mi Calm Calm - 0.00 in Rain Light Rain
3:52 AM 39.9 °F - 37.0 °F 89% 29.82 in 10.0 mi Calm Calm - 0.00 in   Overcast
4:52 AM 39.9 °F 35.8 °F 36.0 °F 86% 29.82 in 10.0 mi North 5.8 mph - N/A   Overcast
5:46 AM 39.2 °F 35.0 °F 37.4 °F 93% 29.87 in 10.0 mi NNE 5.8 mph - N/A   Overcast
5:52 AM 39.9 °F 35.1 °F 37.0 °F 89% 29.83 in 10.0 mi NNE 6.9 mph - N/A   Overcast
6:06 AM 39.2 °F 35.0 °F 37.4 °F 93% 29.88 in 10.0 mi NNE 5.8 mph - N/A   Overcast
6:52 AM 39.0 °F 33.4 °F 37.0 °F 93% 29.86 in 10.0 mi North 8.1 mph - 0.00 in Rain Light Rain
7:22 AM 39.2 °F 33.6 °F 37.4 °F 93% 29.89 in 4.0 mi North 8.1 mph - 0.04 in Rain Light Rain
7:52 AM 39.9 °F 33.4 °F 37.9 °F 93% 29.88 in 8.0 mi NNW 10.4 mph - 0.04 in Rain Light Rain
8:06 AM 39.2 °F 32.0 °F 37.4 °F 93% 29.91 in 2.5 mi North 11.5 mph - 0.04 in Rain Rain
8:13 AM 39.2 °F 32.0 °F 37.4 °F 93% 29.91 in 4.0 mi North 11.5 mph - 0.05 in Rain Light Rain
8:30 AM 37.4 °F 29.8 °F 35.6 °F 93% 29.92 in 10.0 mi North 11.5 mph - 0.05 in Rain Light Rain
8:33 AM 37.4 °F 29.3 °F 35.6 °F 93% 29.92 in 10.0 mi North 12.7 mph - 0.05 in Rain Light Rain
8:52 AM 37.9 °F 30.5 °F 36.0 °F 93% 29.91 in 10.0 mi North 11.5 mph - 0.05 in   Overcast
9:03 AM 37.4 °F 31.4 °F 35.6 °F 93% 29.94 in 7.0 mi North 8.1 mph - 0.00 in Rain Light Rain
9:52 AM 37.9 °F 30.9 °F 36.0 °F 93% 29.93 in 10.0 mi North 10.4 mph - 0.03 in Rain Light Rain
10:29 AM 37.4 °F 29.3 °F 35.6 °F 93% 29.96 in 4.0 mi North 12.7 mph - 0.04 in Rain Rain
10:52 AM 37.0 °F 28.5 °F 34.0 °F 89% 29.96 in 6.0 mi North 13.8 mph - 0.11 in Rain Rain
11:04 AM 37.4 °F 28.5 °F 33.8 °F 87% 29.97 in 8.0 mi North 15.0 mph - 0.01 in Rain Light Rain
11:24 AM 35.6 °F 26.6 °F 33.8 °F 93% 29.97 in 10.0 mi North 13.8 mph - 0.02 in Rain Light Rain
12:52 PM 34.0 °F 22.1 °F 33.1 °F 96% 29.97 in 8.0 mi North 21.9 mph - N/A   Unknown
1:10 PM 34.0 °F 22.4 °F 32.0 °F 92% 29.97 in 10.0 mi North 20.7 mph - N/A   Overcast
1:40 PM - - - N/A% 29.98 in 10.0 mi North 21.9 mph 26.5 mph N/A   Overcast
1:52 PM 33.1 °F 20.9 °F 30.9 °F 92% 29.99 in 10.0 mi North 21.9 mph - N/A   Overcast
2:33 PM 32.0 °F 18.9 °F 30.0 °F 92% 30.00 in 1.8 mi North 24.2 mph 29.9 mph N/A   Overcast
2:36 PM 32.0 °F 18.6 °F 28.9 °F 88% 30.00 in 1.2 mi North 25.3 mph 31.1 mph N/A   Overcast
2:44 PM 30.9 °F 17.8 °F 28.9 °F 92% 30.01 in 0.8 mi North 23.0 mph 33.4 mph N/A   Overcast
2:52 PM 30.9 °F 18.1 °F 28.9 °F 92% 30.01 in 0.8 mi North 21.9 mph 29.9 mph N/A   Overcast
2:58 PM 30.9 °F 17.8 °F 28.0 °F 89% 30.01 in 1.2 mi North 23.0 mph 31.1 mph 0.00 in Snow Light Snow
3:04 PM 30.0 °F 17.2 °F 28.0 °F 92% 30.02 in 1.5 mi North 20.7 mph 31.1 mph 0.00 in Snow Light Snow
3:11 PM 30.0 °F 16.9 °F 28.0 °F 92% 30.02 in 1.2 mi North 21.9 mph - 0.00 in Snow Light Snow
3:31 PM 30.0 °F 16.3 °F 28.0 °F 92% 30.03 in 1.5 mi North 24.2 mph - 0.00 in Snow Light Snow
3:36 PM 30.0 °F 17.2 °F 28.0 °F 92% 30.04 in 1.2 mi North 20.7 mph 28.8 mph 0.00 in Snow Light Snow
3:50 PM 30.2 °F 16.5 °F 28.4 °F 93% 30.05 in 0.8 mi North 24.2 mph - 0.00 in Snow Light Snow
3:52 PM 30.0 °F 17.2 °F 27.0 °F 88% 30.05 in 0.8 mi North 20.7 mph 26.5 mph 0.00 in Snow Light Snow
3:59 PM 30.0 °F 17.5 °F 27.0 °F 88% 30.06 in 0.8 mi North 19.6 mph - 0.00 in Snow Light Snow
4:30 PM 28.9 °F 16.1 °F 27.0 °F 92% 30.08 in 0.8 mi North 19.6 mph - 0.01 in Snow Light Snow
4:52 PM 28.9 °F 16.9 °F 27.0 °F 92% 30.09 in 0.8 mi NNE 17.3 mph - 0.01 in Snow Light Snow
5:52 PM 28.0 °F 15.3 °F 26.1 °F 92% 30.10 in 1.0 mi North 18.4 mph - 0.05 in Snow Light Snow
6:06 PM 28.0 °F 16.5 °F 26.1 °F 92% 30.12 in 1.8 mi NNE 15.0 mph - 0.00 in Snow Light Snow
6:15 PM 28.0 °F 15.7 °F 26.1 °F 92% 30.12 in 1.5 mi NNE 17.3 mph - 0.00 in Snow Light Snow
6:22 PM 28.0 °F 16.5 °F 26.1 °F 92% 30.12 in 1.8 mi NNE 15.0 mph - 0.00 in Snow Light Snow
6:27 PM 28.0 °F 15.3 °F 26.1 °F 92% 30.12 in 1.8 mi North 18.4 mph - 0.00 in Snow Light Snow
6:44 PM 28.0 °F 16.1 °F 26.1 °F 92% 30.13 in 2.0 mi NNE 16.1 mph - 0.00 in Snow Light Snow
6:52 PM 28.0 °F 14.9 °F 25.0 °F 88% 30.13 in 1.8 mi NNE 19.6 mph - 0.00 in Snow Light Snow
6:56 PM 28.0 °F 15.3 °F 25.0 °F 88% 30.13 in 2.0 mi NNE 18.4 mph - 0.00 in Snow Light Snow
7:08 PM 28.0 °F 15.7 °F 26.1 °F 92% 30.13 in 3.0 mi NNE 17.3 mph - 0.01 in Snow Light Snow
7:16 PM 28.0 °F 16.1 °F 26.1 °F 92% 30.13 in 2.5 mi NNE 16.1 mph - 0.01 in Snow Light Snow
7:52 PM 28.0 °F 14.9 °F 25.0 °F 88% 30.14 in 3.0 mi North 19.6 mph - 0.01 in Snow Light Snow
8:05 PM 28.0 °F 16.1 °F 25.0 °F 88% 30.15 in 5.0 mi North 16.1 mph - 0.00 in Snow Light Snow
8:21 PM 28.0 °F 14.6 °F 26.1 °F 92% 30.15 in 2.5 mi North 20.7 mph 25.3 mph 0.00 in Snow Light Snow
8:52 PM 28.0 °F 14.6 °F 26.1 °F 92% 30.14 in 2.5 mi North 20.7 mph - 0.00 in Snow Light Snow
8:57 PM 28.0 °F 14.6 °F 26.1 °F 92% 30.14 in 2.0 mi North 20.7 mph - 0.00 in Snow Light Snow
9:04 PM 28.0 °F 14.6 °F 26.1 °F 92% 30.15 in 1.8 mi North 20.7 mph - 0.00 in Snow Light Snow
9:09 PM 28.0 °F 14.6 °F 26.1 °F 92% 30.15 in 1.5 mi North 20.7 mph - 0.00 in Snow Light Snow
9:18 PM 28.0 °F 14.6 °F 26.1 °F 92% 30.14 in 2.0 mi North 20.7 mph - 0.00 in Snow Light Snow
9:23 PM 28.0 °F 14.6 °F 26.1 °F 92% 30.14 in 2.5 mi North 20.7 mph - 0.00 in Snow Light Snow
9:32 PM 28.0 °F 15.3 °F 26.1 °F 92% 30.15 in 3.0 mi North 18.4 mph - 0.00 in Snow Light Snow
9:52 PM 28.0 °F 14.9 °F 26.1 °F 92% 30.16 in 2.5 mi North 19.6 mph - 0.00 in Snow Light Snow
10:08 PM 28.0 °F 15.7 °F 26.1 °F 92% 30.16 in 1.5 mi North 17.3 mph - 0.00 in Snow Light Snow
10:24 PM 28.0 °F 15.3 °F 26.1 °F 92% 30.15 in 1.2 mi North 18.4 mph - 0.01 in Snow Light Snow
10:36 PM 28.0 °F 14.9 °F 26.1 °F 92% 30.16 in 1.5 mi North 19.6 mph - 0.01 in Snow Light Snow
10:44 PM 28.0 °F 15.3 °F 26.1 °F 92% 30.17 in 1.2 mi North 18.4 mph - 0.01 in Snow Light Snow
10:52 PM 28.0 °F 14.6 °F 26.1 °F 92% 30.17 in 1.0 mi North 20.7 mph - 0.01 in Snow Light Snow
11:08 PM 28.0 °F 15.7 °F 27.0 °F 96% 30.17 in 1.2 mi North 17.3 mph - 0.01 in Snow Light Snow
11:16 PM 28.9 °F 16.1 °F 27.0 °F 92% 30.17 in 1.0 mi North 19.6 mph - 0.01 in Snow Light Snow
11:22 PM 28.9 °F 16.1 °F 27.0 °F 92% 30.17 in 0.8 mi North 19.6 mph - 0.01 in Snow Light Snow
11:44 PM 28.9 °F 15.8 °F 27.0 °F 92% 30.17 in 0.8 mi North 20.7 mph - 0.03 in Snow Light Snow
11:52 PM 28.9 °F 15.4 °F 27.0 °F 92% 30.17 in 1.2 mi North 21.9 mph - 0.03 in Snow Light Snow
11:59 PM 28.9 °F 15.8 °F 27.0 °F 92% 30.17 in 1.5 mi North 20.7 mph - 0.00 in Snow Light Snow